| time (UTC) | temp C | wind direction | speed KPH | gust KPH | rain 1hr cm | rain 24hr cm | rain mn cm | humidity % | barometer mb |
| 20260510091540 | 6 | 338 | 0.0 | 11.3 | 0.00 | 0.53 | 0.53 | 84 | 1013.4 |
| 20260510091033 | 6 | 335 | 3.2 | 11.3 | 0.00 | 0.53 | 0.53 | 88 | 1013.3 |
| 20260510090534 | 5 | 319 | 4.8 | 16.1 | 0.03 | 0.53 | 0.53 | 88 | 1013.5 |
| 20260510090042 | 5 | 338 | 8.0 | 16.1 | 0.00 | 0.51 | 0.51 | 88 | 1013.6 |
| 20260510085533 | 4 | 340 | 9.7 | 17.7 | 0.00 | 0.51 | 0.51 | 88 | 1013.6 |
| 20260510085033 | 4 | 342 | 9.7 | 17.7 | 0.03 | 0.51 | 0.51 | 88 | 1013.7 |
| 20260510084540 | 4 | 359 | 3.2 | 14.5 | 0.03 | 0.51 | 0.51 | 89 | 1013.7 |
| 20260510084033 | 4 | 360 | 1.6 | 14.5 | 0.05 | 0.51 | 0.51 | 89 | 1013.8 |
| 20260510083535 | 4 | 1 | 6.4 | 14.5 | 0.05 | 0.51 | 0.51 | 90 | 1013.8 |
| 20260510083039 | 4 | 359 | 4.8 | 11.3 | 0.08 | 0.51 | 0.51 | 90 | 1013.8 |
| 20260510082534 | 3 | 12 | 4.8 | 12.9 | 0.08 | 0.51 | 0.51 | 90 | 1013.9 |
| 20260510082032 | 3 | 324 | 4.8 | 12.9 | 0.10 | 0.51 | 0.51 | 90 | 1014.0 |
| 20260510081544 | 3 | 292 | 8.0 | 12.9 | 0.13 | 0.51 | 0.51 | 90 | 1014.1 |
| 20260510081034 | 3 | 333 | 6.4 | 12.9 | 0.15 | 0.51 | 0.51 | 90 | 1014.2 |
| 20260510080533 | 3 | 345 | 4.8 | 14.5 | 0.15 | 0.48 | 0.48 | 90 | 1014.2 |
| 20260510080038 | 3 | 338 | 6.4 | 14.5 | 0.15 | 0.48 | 0.48 | 90 | 1014.3 |
| 20260510075535 | 3 | 6 | 8.0 | 14.5 | 0.15 | 0.46 | 0.46 | 90 | 1014.3 |
| 20260510075035 | 3 | 318 | 4.8 | 17.7 | 0.15 | 0.46 | 0.46 | 91 | 1014.4 |
| 20260510074543 | 3 | 325 | 9.7 | 17.7 | 0.18 | 0.46 | 0.46 | 91 | 1014.5 |
| 20260510074035 | 3 | 316 | 6.4 | 12.9 | 0.15 | 0.46 | 0.46 | 91 | 1014.4 |
| 20260510073535 | 3 | 340 | 6.4 | 12.9 | 0.15 | 0.46 | 0.46 | 91 | 1014.4 |
| 20260510073101 | 3 | 328 | 8.0 | 12.9 | 0.15 | 0.43 | 0.43 | 91 | 1014.4 |
| 20260510072533 | 3 | 343 | 6.4 | 16.1 | 0.13 | 0.41 | 0.41 | 91 | 1014.4 |
| 20260510072035 | 3 | 340 | 8.0 | 16.1 | 0.13 | 0.38 | 0.38 | 91 | 1014.4 |
| 20260510071542 | 3 | 331 | 6.4 | 11.3 | 0.13 | 0.36 | 0.36 | 91 | 1014.5 |
| 20260510071032 | 3 | 342 | 6.4 | 9.7 | 0.10 | 0.36 | 0.36 | 91 | 1014.6 |
| 20260510070532 | 3 | 307 | 4.8 | 11.3 | 0.10 | 0.33 | 0.33 | 91 | 1014.6 |
| 20260510070051 | 3 | 338 | 6.4 | 14.5 | 0.13 | 0.33 | 0.33 | 91 | 1014.7 |
| 20260510065536 | 3 | 6 | 6.4 | 14.5 | 0.10 | 0.30 | 0.30 | 91 | 1014.7 |
| 20260510065037 | 3 | 330 | 6.4 | 17.7 | 0.13 | 0.30 | 0.30 | 91 | 1014.6 |
| 20260510064553 | 3 | 356 | 4.8 | 17.7 | 0.13 | 0.28 | 0.28 | 91 | 1014.7 |
| 20260510064033 | 3 | 321 | 9.7 | 17.7 | 0.13 | 0.28 | 0.28 | 91 | 1014.7 |
| 20260510063532 | 3 | 326 | 6.4 | 17.7 | 0.13 | 0.28 | 0.28 | 91 | 1014.7 |
| 20260510063047 | 3 | 334 | 9.7 | 17.7 | 0.13 | 0.28 | 0.28 | 91 | 1014.8 |
| 20260510062533 | 3 | 297 | 4.8 | 11.3 | 0.10 | 0.25 | 0.25 | 91 | 1014.7 |
| 20260510062033 | 3 | 330 | 8.0 | 11.3 | 0.10 | 0.25 | 0.25 | 91 | 1014.9 |
| 20260510061546 | 3 | 1 | 6.4 | 12.9 | 0.08 | 0.23 | 0.23 | 90 | 1014.8 |
| 20260510061033 | 3 | 342 | 8.0 | 12.9 | 0.10 | 0.23 | 0.23 | 90 | 1014.9 |
| 20260510060534 | 3 | 347 | 6.4 | 12.9 | 0.08 | 0.20 | 0.20 | 91 | 1014.7 |
| 20260510060042 | 3 | 330 | 8.0 | 16.1 | 0.08 | 0.18 | 0.18 | 90 | 1014.8 |
| 20260510055533 | 3 | 310 | 8.0 | 16.1 | 0.08 | 0.18 | 0.18 | 90 | 1014.8 |
| 20260510055036 | 3 | 330 | 9.7 | 14.5 | 0.08 | 0.18 | 0.18 | 91 | 1014.8 |
| 20260510054539 | 3 | 355 | 6.4 | 14.5 | 0.08 | 0.15 | 0.15 | 91 | 1014.8 |
| 20260510054035 | 3 | 326 | 6.4 | 14.5 | 0.08 | 0.15 | 0.15 | 91 | 1014.8 |
| 20260510053532 | 3 | 349 | 9.7 | 14.5 | 0.05 | 0.13 | 0.13 | 91 | 1014.7 |
| 20260510053047 | 3 | 339 | 6.4 | 17.7 | 0.05 | 0.13 | 0.13 | 91 | 1014.7 |
| 20260510052533 | 4 | 331 | 9.7 | 17.7 | 0.08 | 0.13 | 0.13 | 91 | 1014.8 |
| 20260510052035 | 4 | 4 | 6.4 | 12.9 | 0.08 | 0.13 | 0.13 | 91 | 1014.8 |
| 20260510051548 | 4 | 22 | 8.0 | 12.9 | 0.05 | 0.10 | 0.10 | 91 | 1014.7 |
| 20260510051037 | 4 | 15 | 6.4 | 17.7 | 0.05 | 0.10 | 0.10 | 91 | 1014.9 |
| 20260510050535 | 4 | 357 | 6.4 | 17.7 | 0.05 | 0.10 | 0.10 | 91 | 1014.9 |
| 20260510050046 | 4 | 351 | 4.8 | 9.7 | 0.08 | 0.10 | 0.10 | 91 | 1015.0 |
| 20260510045533 | 4 | 333 | 4.8 | 8.0 | 0.05 | 0.08 | 0.08 | 91 | 1015.0 |
| 20260510045035 | 4 | 347 | 3.2 | 14.5 | 0.05 | 0.08 | 0.08 | 91 | 1015.1 |
| 20260510044549 | 4 | 356 | 6.4 | 14.5 | 0.03 | 0.08 | 0.08 | 90 | 1015.2 |
| 20260510044033 | 4 | 338 | 6.4 | 12.9 | 0.05 | 0.08 | 0.08 | 90 | 1015.2 |
| 20260510043533 | 4 | 11 | 6.4 | 11.3 | 0.05 | 0.08 | 0.08 | 90 | 1015.1 |
| 20260510043041 | 4 | 15 | 6.4 | 11.3 | 0.05 | 0.08 | 0.08 | 90 | 1015.2 |
| 20260510042532 | 4 | 333 | 6.4 | 12.9 | 0.05 | 0.05 | 0.05 | 90 | 1015.2 |
| 20260510042032 | 4 | 331 | 8.0 | 14.5 | 0.05 | 0.05 | 0.05 | 90 | 1015.2 |
| 20260510041550 | 4 | 349 | 8.0 | 16.1 | 0.05 | 0.05 | 0.05 | 89 | 1015.3 |
| 20260510041033 | 4 | 344 | 9.7 | 16.1 | 0.05 | 0.05 | 0.05 | 89 | 1015.3 |
| 20260510040533 | 4 | 358 | 8.0 | 14.5 | 0.05 | 0.05 | 0.05 | 89 | 1015.4 |
| 20260510040053 | 5 | 334 | 8.0 | 14.5 | 0.03 | 0.03 | 0.03 | 89 | 1015.4 |
| 20260510035532 | 5 | 355 | 8.0 | 14.5 | 0.03 | 0.03 | 0.03 | 89 | 1015.5 |
| 20260510035032 | 5 | 350 | 8.0 | 14.5 | 0.03 | 0.03 | 0.03 | 89 | 1015.5 |
| 20260510034538 | 5 | 343 | 8.0 | 14.5 | 0.03 | 0.03 | 0.03 | 89 | 1015.6 |
| 20260510034033 | 5 | 345 | 4.8 | 14.5 | 0.00 | 0.00 | 0.00 | 88 | 1015.7 |
| 20260510033533 | 5 | 342 | 6.4 | 16.1 | 0.00 | 0.00 | 0.00 | 88 | 1015.7 |
| 20260510033047 | 5 | 22 | 8.0 | 16.1 | 0.00 | 0.00 | 0.00 | 88 | 1015.6 |
| 20260510032536 | 5 | 353 | 8.0 | 12.9 | 0.00 | 0.00 | 0.00 | 88 | 1015.8 |
| 20260510032036 | 5 | 330 | 8.0 | 12.9 | 0.00 | 0.00 | 0.00 | 88 | 1015.9 |
| 20260510031551 | 5 | 337 | 8.0 | 12.9 | 0.00 | 0.00 | 0.00 | 89 | 1016.0 |
| 20260510031034 | 5 | 27 | 6.4 | 11.3 | 0.00 | 0.00 | 0.00 | 89 | 1016.0 |
| 20260510030533 | 5 | 335 | 4.8 | 11.3 | 0.00 | 0.00 | 0.00 | 89 | 1016.0 |
| 20260510030043 | 5 | 346 | 6.4 | 9.7 | 0.00 | 0.00 | 0.00 | 89 | 1016.0 |
| 20260510025533 | 5 | 325 | 6.4 | 9.7 | 0.00 | 0.00 | 0.00 | 89 | 1016.0 |
| 20260510025035 | 5 | 343 | 6.4 | 12.9 | 0.00 | 0.00 | 0.00 | 89 | 1016.2 |
| 20260510024541 | 5 | 339 | 6.4 | 12.9 | 0.00 | 0.00 | 0.00 | 89 | 1016.2 |
| 20260510024033 | 5 | 325 | 6.4 | 12.9 | 0.00 | 0.00 | 0.00 | 89 | 1016.1 |
| 20260510023534 | 5 | 357 | 6.4 | 12.9 | 0.00 | 0.00 | 0.00 | 89 | 1016.1 |
| 20260510023039 | 5 | 335 | 6.4 | 12.9 | 0.00 | 0.00 | 0.00 | 89 | 1016.3 |
| 20260510022533 | 5 | 326 | 8.0 | 12.9 | 0.00 | 0.00 | 0.00 | 90 | 1016.4 |
| 20260510022032 | 5 | 347 | 6.4 | 9.7 | 0.00 | 0.00 | 0.00 | 90 | 1016.4 |
| 20260510021545 | 5 | 322 | 4.8 | 11.3 | 0.00 | 0.00 | 0.00 | 90 | 1016.4 |
| 20260510021033 | 5 | 340 | 4.8 | 11.3 | 0.00 | 0.00 | 0.00 | 89 | 1016.6 |
| 20260510020532 | 5 | 348 | 6.4 | 11.3 | 0.00 | 0.00 | 0.00 | 89 | 1016.5 |
| 20260510020046 | 5 | 355 | 4.8 | 8.0 | 0.00 | 0.00 | 0.00 | 89 | 1016.6 |
| 20260510015533 | 5 | 321 | 4.8 | 8.0 | 0.00 | 0.00 | 0.00 | 89 | 1016.5 |
| 20260510015036 | 5 | 336 | 4.8 | 8.0 | 0.00 | 0.00 | 0.00 | 89 | 1016.6 |
| 20260510014541 | 5 | 338 | 3.2 | 8.0 | 0.00 | 0.00 | 0.00 | 89 | 1016.5 |
| 20260510014034 | 5 | 345 | 3.2 | 3.2 | 0.00 | 0.00 | 0.00 | 88 | 1016.6 |
| 20260510013533 | 5 | 357 | 1.6 | 3.2 | 0.00 | 0.00 | 0.00 | 88 | 1016.7 |
| 20260510013041 | 5 | 5 | 0.0 | 1.6 | 0.00 | 0.00 | 0.00 | 87 | 1016.8 |
| 20260510012533 | 5 | 0 | 0.0 | 1.6 | 0.00 | 0.00 | 0.00 | 86 | 1016.7 |
| 20260510012034 | 6 | 0 | 0.0 | 1.6 | 0.00 | 0.00 | 0.00 | 85 | 1016.8 |
| 20260510011538 | 6 | 0 | 0.0 | 8.0 | 0.00 | 0.00 | 0.00 | 85 | 1016.7 |
| 20260510011032 | 6 | 0 | 1.6 | 8.0 | 0.00 | 0.00 | 0.00 | 84 | 1016.8 |
| 20260510010532 | 6 | 41 | 0.0 | 9.7 | 0.00 | 0.00 | 0.00 | 83 | 1016.8 |
| 20260510010038 | 6 | 78 | 1.6 | 9.7 | 0.00 | 0.00 | 0.00 | 82 | 1016.8 |
| 20260510005533 | 6 | 75 | 0.0 | 9.7 | 0.00 | 0.00 | 0.00 | 80 | 1017.0 |
| 20260510005032 | 6 | 356 | 1.6 | 9.7 | 0.00 | 0.00 | 0.00 | 80 | 1017.0 |
| 20260510004537 | 6 | 330 | 0.0 | 6.4 | 0.00 | 0.00 | 0.00 | 80 | 1016.9 |
| 20260510004040 | 6 | 0 | 0.0 | 6.4 | 0.00 | 0.00 | 0.00 | 81 | 1017.1 |
| 20260510003536 | 6 | 31 | 0.0 | 4.8 | 0.00 | 0.00 | 0.00 | 82 | 1017.1 |
| 20260510003049 | 5 | 0 | 1.6 | 9.7 | 0.00 | 0.00 | 0.00 | 83 | 1017.1 |
| 20260510002536 | 5 | 346 | 3.2 | 9.7 | 0.00 | 0.00 | 0.00 | 83 | 1017.1 |
| 20260510002036 | 5 | 343 | 4.8 | 9.7 | 0.00 | 0.00 | 0.00 | 84 | 1017.2 |
| 20260510001552 | 5 | 0 | 0.0 | 1.6 | 0.00 | 0.00 | 0.00 | 84 | 1017.3 |
| 20260510001035 | 5 | 0 | 0.0 | 1.6 | 0.00 | 0.00 | 0.00 | 85 | 1017.3 |
| 20260510000535 | 5 | 0 | 0.0 | 3.2 | 0.00 | 0.00 | 0.00 | 85 | 1017.4 |
| 20260510000044 | 5 | 0 | 0.0 | 3.2 | 0.00 | 0.00 | 0.00 | 85 | 1017.4 |
| 20260509235535 | 5 | 0 | 0.0 | 1.6 | 0.00 | 0.00 | 0.00 | 85 | 1017.6 |
| 20260509235035 | 5 | 0 | 0.0 | 1.6 | 0.00 | 0.00 | 0.00 | 84 | 1017.6 |
| 20260509234547 | 5 | 0 | 0.0 | 1.6 | 0.00 | 0.00 | 0.00 | 85 | 1017.6 |
| 20260509234035 | 5 | 0 | 0.0 | 1.6 | 0.00 | 0.00 | 0.00 | 85 | 1017.6 |
| 20260509233535 | 4 | 0 | 0.0 | 0.0 | 0.00 | 0.00 | 0.00 | 85 | 1017.6 |
| 20260509233052 | 4 | 0 | 0.0 | 1.6 | 0.00 | 0.00 | 0.00 | 85 | 1017.7 |
| 20260509232535 | 4 | 0 | 0.0 | 1.6 | 0.00 | 0.00 | 0.00 | 85 | 1017.7 |
| 20260509232035 | 4 | 0 | 0.0 | 1.6 | 0.00 | 0.00 | 0.00 | 85 | 1017.8 |
| 20260509231546 | 4 | 96 | 0.0 | 0.0 | 0.00 | 0.00 | 0.00 | 85 | 1017.7 |
| 20260509231034 | 4 | 0 | 0.0 | 0.0 | 0.00 | 0.00 | 0.00 | 84 | 1017.8 |
| 20260509230534 | 4 | 0 | 0.0 | 0.0 | 0.00 | 0.00 | 0.00 | 83 | 1017.8 |
| 20260509230045 | 4 | 0 | 0.0 | 0.0 | 0.00 | 0.00 | 0.00 | 83 | 1017.9 |
| 20260509225536 | 4 | 0 | 0.0 | 0.0 | 0.00 | 0.00 | 0.00 | 82 | 1017.9 |
| 20260509225038 | 4 | 0 | 0.0 | 0.0 | 0.00 | 0.00 | 0.00 | 82 | 1017.9 |
| 20260509224556 | 5 | 0 | 0.0 | 0.0 | 0.00 | 0.00 | 0.00 | 82 | 1017.9 |
| 20260509224035 | 5 | 0 | 0.0 | 0.0 | 0.00 | 0.00 | 0.00 | 81 | 1017.9 |
| 20260509223535 | 5 | 0 | 0.0 | 0.0 | 0.00 | 0.00 | 0.00 | 81 | 1017.9 |
| 20260509223050 | 5 | 0 | 0.0 | 0.0 | 0.00 | 0.00 | 0.00 | 81 | 1018.0 |
| 20260509222534 | 5 | 0 | 0.0 | 0.0 | 0.00 | 0.00 | 0.00 | 81 | 1018.1 |
| 20260509222036 | 5 | 0 | 0.0 | 0.0 | 0.00 | 0.00 | 0.00 | 80 | 1018.1 |
| 20260509221602 | 5 | 0 | 0.0 | 0.0 | 0.00 | 0.00 | 0.00 | 79 | 1018.2 |
| 20260509221035 | 5 | 0 | 0.0 | 0.0 | 0.00 | 0.00 | 0.00 | 79 | 1018.2 |
| 20260509220534 | 5 | 0 | 0.0 | 0.0 | 0.00 | 0.00 | 0.00 | 79 | 1018.2 |
| 20260509220049 | 5 | 0 | 0.0 | 0.0 | 0.00 | 0.00 | 0.00 | 78 | 1018.3 |
| 20260509215535 | 5 | 0 | 0.0 | 0.0 | 0.00 | 0.00 | 0.00 | 78 | 1018.3 |
| 20260509215035 | 5 | 0 | 0.0 | 0.0 | 0.00 | 0.00 | 0.00 | 78 | 1018.3 |
| 20260509214545 | 5 | 312 | 0.0 | 0.0 | 0.00 | 0.00 | 0.00 | 78 | 1018.4 |
| 20260509214037 | 5 | 0 | 0.0 | 0.0 | 0.00 | 0.00 | 0.00 | 77 | 1018.4 |
| 20260509213532 | 5 | 0 | 0.0 | 0.0 | 0.00 | 0.00 | 0.00 | 77 | 1018.4 |
| 20260509213045 | 5 | 0 | 0.0 | 1.6 | 0.00 | 0.00 | 0.00 | 77 | 1018.5 |
| 20260509212532 | 6 | 308 | 0.0 | 1.6 | 0.00 | 0.00 | 0.00 | 75 | 1018.4 |
| 20260509212033 | 6 | 189 | 0.0 | 1.6 | 0.00 | 0.00 | 0.00 | 74 | 1018.5 |
| 20260509211546 | 6 | 0 | 0.0 | 4.8 | 0.00 | 0.00 | 0.00 | 74 | 1018.5 |
| 20260509211033 | 6 | 98 | 0.0 | 4.8 | 0.00 | 0.00 | 0.00 | 73 | 1018.6 |
| 20260509210532 | 6 | 119 | 0.0 | 1.6 | 0.00 | 0.00 | 0.00 | 73 | 1018.6 |
| 20260509210044 | 6 | 128 | 0.0 | 3.2 | 0.00 | 0.00 | 0.00 | 72 | 1018.6 |
| 20260509205533 | 7 | 0 | 0.0 | 6.4 | 0.00 | 0.00 | 0.00 | 72 | 1018.7 |
| 20260509205033 | 7 | 97 | 3.2 | 6.4 | 0.00 | 0.00 | 0.00 | 71 | 1018.6 |
| 20260509204541 | 7 | 139 | 1.6 | 4.8 | 0.00 | 0.00 | 0.00 | 71 | 1018.7 |
| 20260509204033 | 7 | 115 | 0.0 | 4.8 | 0.00 | 0.00 | 0.00 | 71 | 1018.8 |
| 20260509203534 | 7 | 0 | 1.6 | 4.8 | 0.00 | 0.00 | 0.00 | 71 | 1018.8 |
| 20260509203043 | 7 | 141 | 1.6 | 8.0 | 0.00 | 0.00 | 0.00 | 71 | 1018.7 |
| 20260509202533 | 7 | 101 | 1.6 | 8.0 | 0.00 | 0.00 | 0.00 | 71 | 1018.8 |
| 20260509202034 | 7 | 126 | 1.6 | 6.4 | 0.00 | 0.00 | 0.00 | 71 | 1018.9 |
| 20260509201547 | 7 | 82 | 3.2 | 6.4 | 0.00 | 0.00 | 0.00 | 71 | 1018.7 |
| 20260509201035 | 7 | 149 | 3.2 | 6.4 | 0.00 | 0.00 | 0.00 | 69 | 1018.8 |
| 20260509200532 | 7 | 135 | 3.2 | 4.8 | 0.00 | 0.00 | 0.00 | 68 | 1018.8 |
| 20260509200045 | 7 | 120 | 1.6 | 4.8 | 0.00 | 0.00 | 0.00 | 67 | 1018.8 |
| 20260509195532 | 7 | 156 | 1.6 | 6.4 | 0.00 | 0.00 | 0.00 | 66 | 1018.9 |
| 20260509195032 | 7 | 177 | 1.6 | 8.0 | 0.00 | 0.00 | 0.00 | 66 | 1018.9 |
| 20260509194545 | 8 | 174 | 3.2 | 9.7 | 0.00 | 0.00 | 0.00 | 67 | 1018.9 |
| 20260509194033 | 8 | 183 | 4.8 | 9.7 | 0.00 | 0.00 | 0.00 | 65 | 1018.8 |
| 20260509193532 | 8 | 192 | 4.8 | 9.7 | 0.00 | 0.00 | 0.00 | 63 | 1018.8 |
| 20260509193044 | 8 | 195 | 4.8 | 8.0 | 0.00 | 0.00 | 0.00 | 63 | 1018.9 |
| 20260509192533 | 8 | 165 | 3.2 | 8.0 | 0.00 | 0.00 | 0.00 | 63 | 1018.9 |
| 20260509192033 | 8 | 219 | 3.2 | 6.4 | 0.00 | 0.00 | 0.00 | 62 | 1019.1 |
| 20260509191539 | 8 | 162 | 1.6 | 6.4 | 0.00 | 0.00 | 0.00 | 61 | 1019.0 |
| 20260509191035 | 9 | 0 | 1.6 | 4.8 | 0.00 | 0.00 | 0.00 | 60 | 1019.0 |
| 20260509190532 | 9 | 120 | 1.6 | 6.4 | 0.00 | 0.00 | 0.00 | 58 | 1019.0 |
| 20260509190043 | 9 | 174 | 3.2 | 6.4 | 0.00 | 0.00 | 0.00 | 57 | 1019.1 |
| 20260509185533 | 9 | 165 | 3.2 | 6.4 | 0.00 | 0.00 | 0.00 | 56 | 1019.1 |
| 20260509185033 | 9 | 166 | 1.6 | 4.8 | 0.00 | 0.00 | 0.00 | 55 | 1019.1 |
| 20260509184545 | 10 | 150 | 0.0 | 4.8 | 0.00 | 0.00 | 0.00 | 54 | 1019.2 |
| 20260509184032 | 10 | 193 | 1.6 | 3.2 | 0.00 | 0.00 | 0.00 | 54 | 1019.2 |
| 20260509183533 | 10 | 162 | 0.0 | 6.4 | 0.00 | 0.00 | 0.00 | 53 | 1019.3 |
| 20260509183047 | 10 | 0 | 0.0 | 9.7 | 0.00 | 0.00 | 0.00 | 53 | 1019.3 |
| 20260509182534 | 10 | 224 | 4.8 | 11.3 | 0.00 | 0.00 | 0.00 | 52 | 1019.3 |
| 20260509182034 | 10 | 191 | 8.0 | 17.7 | 0.00 | 0.00 | 0.00 | 52 | 1019.3 |
| 20260509181547 | 10 | 139 | 9.7 | 17.7 | 0.00 | 0.00 | 0.00 | 51 | 1019.2 |
| 20260509181035 | 10 | 175 | 3.2 | 12.9 | 0.00 | 0.00 | 0.00 | 51 | 1019.3 |
| 20260509180535 | 10 | 150 | 4.8 | 19.3 | 0.00 | 0.00 | 0.00 | 49 | 1019.3 |
| 20260509180050 | 10 | 206 | 12.9 | 19.3 | 0.00 | 0.00 | 0.00 | 48 | 1019.3 |
| 20260509175534 | 11 | 233 | 12.9 | 17.7 | 0.00 | 0.00 | 0.00 | 47 | 1019.2 |
| 20260509175034 | 11 | 201 | 8.0 | 16.1 | 0.00 | 0.00 | 0.00 | 46 | 1019.2 |
| 20260509174539 | 11 | 221 | 4.8 | 19.3 | 0.00 | 0.00 | 0.00 | 46 | 1019.2 |
| 20260509174034 | 11 | 217 | 11.3 | 22.5 | 0.00 | 0.00 | 0.00 | 45 | 1019.3 |
| 20260509173535 | 11 | 218 | 14.5 | 27.4 | 0.00 | 0.00 | 0.00 | 44 | 1019.3 |
| 20260509173048 | 11 | 227 | 16.1 | 27.4 | 0.00 | 0.00 | 0.00 | 42 | 1019.3 |
| 20260509172536 | 11 | 169 | 16.1 | 27.4 | 0.00 | 0.00 | 0.00 | 42 | 1019.4 |
| 20260509172035 | 11 | 225 | 16.1 | 30.6 | 0.00 | 0.00 | 0.00 | 42 | 1019.5 |
| 20260509171551 | 11 | 224 | 17.7 | 30.6 | 0.00 | 0.00 | 0.00 | 41 | 1019.5 |
| 20260509171034 | 12 | 141 | 20.9 | 29.0 | 0.00 | 0.00 | 0.00 | 41 | 1019.6 |
| 20260509170534 | 12 | 214 | 19.3 | 29.0 | 0.00 | 0.00 | 0.00 | 41 | 1019.7 |
| 20260509170047 | 12 | 204 | 16.1 | 29.0 | 0.00 | 0.00 | 0.00 | 41 | 1019.7 |
| 20260509165534 | 12 | 127 | 17.7 | 33.8 | 0.00 | 0.00 | 0.00 | 41 | 1019.6 |
| 20260509165038 | 12 | 217 | 16.1 | 33.8 | 0.00 | 0.00 | 0.00 | 39 | 1019.6 |
| 20260509164550 | 12 | 248 | 17.7 | 33.8 | 0.00 | 0.00 | 0.00 | 39 | 1019.7 |
| 20260509164035 | 12 | 220 | 20.9 | 33.8 | 0.00 | 0.00 | 0.00 | 39 | 1019.7 |
| 20260509163537 | 12 | 202 | 17.7 | 40.2 | 0.00 | 0.00 | 0.00 | 39 | 1019.7 |
| 20260509163042 | 12 | 177 | 19.3 | 40.2 | 0.00 | 0.00 | 0.00 | 39 | 1019.9 |
| 20260509162534 | 12 | 200 | 27.4 | 40.2 | 0.00 | 0.00 | 0.00 | 37 | 1020.0 |
| 20260509162035 | 12 | 199 | 16.1 | 38.6 | 0.00 | 0.00 | 0.00 | 38 | 1019.9 |
| 20260509161541 | 13 | 205 | 25.7 | 40.2 | 0.00 | 0.00 | 0.00 | 37 | 1020.2 |
| 20260509161034 | 13 | 236 | 17.7 | 40.2 | 0.00 | 0.00 | 0.00 | 37 | 1020.2 |
| 20260509160535 | 13 | 231 | 22.5 | 37.0 | 0.00 | 0.00 | 0.00 | 38 | 1020.2 |
| 20260509160051 | 13 | 236 | 24.1 | 37.0 | 0.00 | 0.00 | 0.00 | 38 | 1020.2 |
| 20260509155535 | 13 | 228 | 24.1 | 37.0 | 0.00 | 0.00 | 0.00 | 37 | 1020.3 |
| 20260509155034 | 13 | 206 | 20.9 | 33.8 | 0.00 | 0.00 | 0.00 | 36 | 1020.3 |
| 20260509154539 | 13 | 224 | 22.5 | 32.2 | 0.00 | 0.00 | 0.00 | 36 | 1020.4 |
| 20260509154034 | 13 | 205 | 19.3 | 33.8 | 0.00 | 0.00 | 0.00 | 34 | 1020.3 |
| 20260509153537 | 13 | 240 | 25.7 | 33.8 | 0.00 | 0.00 | 0.00 | 35 | 1020.4 |
| 20260509153053 | 13 | 263 | 22.5 | 32.2 | 0.00 | 0.00 | 0.00 | 34 | 1020.4 |
| 20260509152532 | 14 | 215 | 17.7 | 33.8 | 0.00 | 0.00 | 0.00 | 35 | 1020.4 |
| 20260509152034 | 13 | 219 | 22.5 | 41.8 | 0.00 | 0.00 | 0.00 | 35 | 1020.5 |
| 20260509151545 | 13 | 216 | 25.7 | 41.8 | 0.00 | 0.00 | 0.00 | 34 | 1020.5 |
| 20260509151033 | 13 | 212 | 20.9 | 35.4 | 0.00 | 0.00 | 0.00 | 35 | 1020.6 |
| 20260509150533 | 13 | 219 | 19.3 | 35.4 | 0.00 | 0.00 | 0.00 | 33 | 1020.7 |
| 20260509150049 | 13 | 212 | 22.5 | 35.4 | 0.00 | 0.00 | 0.00 | 32 | 1020.7 |
| 20260509145534 | 13 | 214 | 19.3 | 33.8 | 0.00 | 0.00 | 0.00 | 33 | 1020.7 |
| 20260509145032 | 14 | 231 | 19.3 | 33.8 | 0.00 | 0.00 | 0.00 | 32 | 1020.9 |
| 20260509144540 | 13 | 214 | 19.3 | 32.2 | 0.00 | 0.00 | 0.00 | 32 | 1020.9 |
| 20260509144033 | 13 | 184 | 17.7 | 30.6 | 0.00 | 0.00 | 0.00 | 35 | 1020.9 |
| 20260509143534 | 13 | 187 | 14.5 | 32.2 | 0.00 | 0.00 | 0.00 | 36 | 1020.8 |
| 20260509143040 | 13 | 175 | 17.7 | 37.0 | 0.00 | 0.00 | 0.00 | 34 | 1020.9 |
| 20260509142535 | 13 | 207 | 17.7 | 37.0 | 0.00 | 0.00 | 0.00 | 34 | 1021.0 |
| 20260509142033 | 14 | 198 | 17.7 | 32.2 | 0.00 | 0.00 | 0.00 | 36 | 1021.0 |
| 20260509141547 | 14 | 219 | 12.9 | 32.2 | 0.00 | 0.00 | 0.00 | 35 | 1020.9 |
| 20260509141037 | 14 | 219 | 19.3 | 32.2 | 0.00 | 0.00 | 0.00 | 35 | 1020.9 |
| 20260509140533 | 14 | 225 | 16.1 | 29.0 | 0.00 | 0.00 | 0.00 | 35 | 1021.0 |
| 20260509140053 | 14 | 213 | 17.7 | 29.0 | 0.00 | 0.00 | 0.00 | 33 | 1021.0 |
| 20260509135534 | 14 | 99 | 14.5 | 37.0 | 0.00 | 0.00 | 0.00 | 34 | 1021.1 |
| 20260509135036 | 14 | 208 | 20.9 | 37.0 | 0.00 | 0.00 | 0.00 | 33 | 1021.1 |
| 20260509134611 | 15 | 230 | 17.7 | 32.2 | 0.00 | 0.00 | 0.00 | 34 | 1021.2 |
| 20260509134033 | 15 | 214 | 22.5 | 32.2 | 0.00 | 0.00 | 0.00 | 32 | 1021.2 |
| 20260509133532 | 15 | 158 | 17.7 | 30.6 | 0.00 | 0.00 | 0.00 | 32 | 1021.2 |
| 20260509133045 | 15 | 167 | 19.3 | 33.8 | 0.00 | 0.00 | 0.00 | 32 | 1021.1 |
| 20260509132533 | 15 | 204 | 16.1 | 38.6 | 0.00 | 0.00 | 0.00 | 32 | 1021.3 |
| 20260509132036 | 15 | 146 | 22.5 | 40.2 | 0.00 | 0.00 | 0.00 | 30 | 1021.6 |
| 20260509131549 | 15 | 207 | 17.7 | 40.2 | 0.00 | 0.00 | 0.00 | 30 | 1021.6 |
| 20260509131035 | 16 | 217 | 22.5 | 35.4 | 0.00 | 0.00 | 0.00 | 28 | 1021.5 |
| 20260509130534 | 16 | 219 | 25.7 | 37.0 | 0.00 | 0.00 | 0.00 | 28 | 1021.6 |
| 20260509130041 | 16 | 224 | 25.7 | 38.6 | 0.00 | 0.00 | 0.00 | 27 | 1021.6 |
| 20260509125532 | 16 | 216 | 27.4 | 38.6 | 0.00 | 0.00 | 0.00 | 27 | 1021.7 |
| 20260509125036 | 15 | 215 | 24.1 | 41.8 | 0.00 | 0.00 | 0.00 | 27 | 1021.8 |
| 20260509124539 | 15 | 221 | 27.4 | 41.8 | 0.00 | 0.00 | 0.00 | 27 | 1021.8 |
| 20260509124033 | 15 | 250 | 25.7 | 41.8 | 0.00 | 0.00 | 0.00 | 27 | 1021.9 |
| 20260509123533 | 15 | 198 | 22.5 | 33.8 | 0.00 | 0.00 | 0.00 | 26 | 1021.9 |
| 20260509123038 | 15 | 234 | 22.5 | 33.8 | 0.00 | 0.00 | 0.00 | 28 | 1021.9 |
| 20260509122532 | 15 | 229 | 24.1 | 33.8 | 0.00 | 0.00 | 0.00 | 27 | 1021.9 |
| 20260509122034 | 15 | 226 | 22.5 | 32.2 | 0.00 | 0.00 | 0.00 | 28 | 1022.0 |
| 20260509121551 | 15 | 207 | 17.7 | 32.2 | 0.00 | 0.00 | 0.00 | 30 | 1022.0 |
| 20260509121032 | 15 | 224 | 14.5 | 29.0 | 0.00 | 0.00 | 0.00 | 31 | 1022.1 |
| 20260509120532 | 15 | 235 | 19.3 | 33.8 | 0.00 | 0.00 | 0.00 | 32 | 1022.0 |
| 20260509120043 | 15 | 217 | 16.1 | 33.8 | 0.00 | 0.00 | 0.00 | 34 | 1022.0 |
| 20260509115532 | 15 | 216 | 19.3 | 33.8 | 0.00 | 0.00 | 0.00 | 32 | 1022.0 |
| 20260509115034 | 15 | 161 | 16.1 | 33.8 | 0.00 | 0.00 | 0.00 | 33 | 1022.1 |
| 20260509114547 | 15 | 113 | 19.3 | 33.8 | 0.00 | 0.00 | 0.00 | 34 | 1022.0 |
| 20260509114033 | 15 | 153 | 14.5 | 29.0 | 0.00 | 0.00 | 0.00 | 34 | 1022.2 |
| 20260509113534 | 15 | 199 | 17.7 | 29.0 | 0.00 | 0.00 | 0.00 | 34 | 1022.2 |
| 20260509113042 | 15 | 236 | 12.9 | 32.2 | 0.00 | 0.00 | 0.00 | 38 | 1022.2 |
| 20260509112532 | 15 | 205 | 20.9 | 32.2 | 0.00 | 0.00 | 0.00 | 36 | 1022.3 |
| 20260509112032 | 15 | 225 | 24.1 | 32.2 | 0.00 | 0.00 | 0.00 | 36 | 1022.3 |
| 20260509111541 | 15 | 219 | 17.7 | 32.2 | 0.00 | 0.00 | 0.00 | 35 | 1022.4 |
| 20260509111032 | 15 | 233 | 22.5 | 32.2 | 0.00 | 0.00 | 0.00 | 36 | 1022.3 |
| 20260509110536 | 14 | 220 | 17.7 | 38.6 | 0.00 | 0.00 | 0.00 | 35 | 1022.4 |
| 20260509110047 | 14 | 229 | 22.5 | 38.6 | 0.00 | 0.00 | 0.00 | 35 | 1022.5 |
| 20260509105532 | 14 | 207 | 14.5 | 35.4 | 0.00 | 0.00 | 0.00 | 37 | 1022.3 |
| 20260509105032 | 14 | 203 | 19.3 | 29.0 | 0.00 | 0.00 | 0.00 | 40 | 1022.5 |
| 20260509104549 | 14 | 207 | 16.1 | 27.4 | 0.00 | 0.00 | 0.00 | 43 | 1022.6 |
| 20260509104032 | 14 | 227 | 19.3 | 27.4 | 0.00 | 0.00 | 0.00 | 49 | 1022.5 |
| 20260509103533 | 14 | 217 | 16.1 | 24.1 | 0.00 | 0.00 | 0.00 | 45 | 1022.4 |
| 20260509103058 | 15 | 235 | 11.3 | 27.4 | 0.00 | 0.00 | 0.00 | 49 | 1022.5 |
| 20260509102534 | 15 | 93 | 14.5 | 27.4 | 0.00 | 0.00 | 0.00 | 48 | 1022.4 |
| 20260509102033 | 15 | 179 | 11.3 | 33.8 | 0.00 | 0.00 | 0.00 | 49 | 1022.3 |
| 20260509101548 | 16 | 193 | 17.7 | 33.8 | 0.00 | 0.00 | 0.00 | 45 | 1022.5 |
| 20260509101032 | 16 | 200 | 19.3 | 33.8 | 0.00 | 0.00 | 0.00 | 47 | 1022.4 |
| 20260509100532 | 15 | 226 | 14.5 | 33.8 | 0.00 | 0.00 | 0.00 | 49 | 1022.4 |
| 20260509100046 | 15 | 171 | 14.5 | 29.0 | 0.00 | 0.00 | 0.00 | 49 | 1022.5 |
| 20260509095533 | 15 | 214 | 17.7 | 29.0 | 0.00 | 0.00 | 0.00 | 50 | 1022.6 |
| 20260509095033 | 15 | 210 | 14.5 | 22.5 | 0.00 | 0.00 | 0.00 | 52 | 1022.7 |
| 20260509094550 | 15 | 236 | 12.9 | 22.5 | 0.00 | 0.00 | 0.00 | 51 | 1022.6 |
| 20260509094032 | 15 | 203 | 6.4 | 22.5 | 0.00 | 0.00 | 0.00 | 57 | 1022.6 |
| 20260509093532 | 15 | 217 | 12.9 | 22.5 | 0.00 | 0.00 | 0.00 | 54 | 1022.7 |
| 20260509093045 | 15 | 214 | 11.3 | 24.1 | 0.00 | 0.00 | 0.00 | 51 | 1022.8 |
| 20260509092532 | 15 | 236 | 16.1 | 24.1 | 0.00 | 0.00 | 0.00 | 53 | 1022.9 |
| 20260509092034 | 14 | 237 | 14.5 | 27.4 | 0.00 | 0.00 | 0.00 | 52 | 1023.0 |